Regional Weather Roundup
Issued by NWS Sterling, VA

Home | Current Version | Previous Version | Graphics & Text | Print | Product List | Glossary On
Versions: 1 2 3 4 5 6 7 8 9 10 11 12 13 14 15 16 17 18 19 20 21 22 23 24 25 26 27 28 29 30 31 32 33 34 35 36 37 38 39 40 41 42 43 44 45 46 47 48 49 50
000
ASUS41 KLWX 220910
RWRLWX

REGIONAL WEATHER ROUNDUP
NATIONAL WEATHER SERVICE BALTIMORE MD/WASHINGTON DC
500 AM EDT FRI MAY 22 2015

Note: "FAIR" indicates few or no clouds below 12,000 feet
with no significant weather and/or obstructions to visibility.
 TC=TEMPERATURE CELSIUS

 * =Non NWS site. Station does not report precipitation (e.g. rain,
    snow, etc.), thunder, or fog.

DCZ001-MDZ009-015-VAZ040>042-051-053>054-221000-
WASHINGTON METRO

CITY           SKY/WX    TMP DP  RH WIND       PRES   REMARKS
WASHINGTON NAT PTCLDY    54  45  71 NW6       30.02R
DULLES         PTCLDY    49  43  80 VRB5      30.02R
ANDREWS AFB    CLEAR     51  46  83 W8        30.00R
FT BELVOIR     CLEAR     46  45  93 VRB2      30.02R FOG
QUANTICO       CLEAR     51  45  79 NW6       30.04R
COLLEGE PARK*  CLEAR     50  46  87 CALM      30.00R
LEESBURG*      CLEAR     50  46  87 NW7       30.03R
GAITHERSBURG*  CLEAR     48  41  76 NW9       30.04R

$$

MDZ006>007-011-014-221000-
BALTIMORE METRO

CITY           SKY/WX    TMP DP  RH WIND       PRES   REMARKS
BWI AIRPORT    CLEAR     48  45  89 CALM      29.99R
MD SCIENCE CTR   N/A     53  44  71 MISG      29.98R
MARTIN STATE   CLEAR     52  46  82 W7        29.99R
ANNAPOLIS      CLEAR     51  47  86 W6        29.99R
FORT MEADE*    CLEAR     45  45 100 CALM      30.03R

$$

MDZ012-015-019>023-221000-
MARYLAND EASTERN SHORE

CITY           SKY/WX    TMP DP  RH WIND       PRES   REMARKS
OCEAN CITY     CLEAR     49  47  93 NW7       29.94R
SALISBURY      CLEAR     50  49  96 W7        29.95R
BAY BRIDGE AP*   N/A    N/A N/A N/A NW17      29.99R
CAMBRIDGE*     PTCLDY    55  50  82 NW15G21   29.97R
EASTON*        CLEAR     54  54 100 NW9       30.01R

$$

MDZ017>025-221000-
SOUTHERN MARYLAND

CITY           SKY/WX    TMP DP  RH WIND       PRES   REMARKS
PATUXENT RIVER CLEAR     52  47  83 W15       29.98R
ST INIGOES     CLEAR     52  48  86 VRB3      29.99R
LEONARDTOWN*   CLEAR     50  45  81 W7        30.01R

$$

MDZ003>005-221000-
NORTH CENTRAL MARYLAND

CITY           SKY/WX    TMP DP  RH WIND       PRES   REMARKS
FREDERICK*     CLEAR     46  45  93 CALM      30.04R
HAGERSTOWN APT CLEAR     48  41  76 S3        30.02R
WESTMINSTER*   CLEAR     48  45  87 W8        30.00R

$$

MDZ501>502-221000-
WESTERN MARYLAND

CITY           SKY/WX    TMP DP  RH WIND       PRES   REMARKS
OAKLAND*       CLEAR     37 N/A N/A W8G16     30.06S
CUMBERLAND*    CLEAR     52  39  62 W7        30.10R

$$

VAZ025>031-221000-
SHENANDOAH VALLEY

CITY           SKY/WX    TMP DP  RH WIND       PRES   REMARKS
WINCHESTER*    CLEAR     46  37  71 W3        30.04R
FRONT ROYAL*   FAIR      46  41  81 CALM      30.04R
LURAY*         FAIR      52  41  66 W3        30.06R
NEW MARKET*    FAIR      43  42  97 CALM      30.06R
STAUNTON*      CLEAR     45  42  89 CALM      30.09R
WAYNESBORO*    FAIR      45  40  82 W5        30.08R

$$

WVZ021-048>050-054>055-221000-
EASTERN WEST VIRGINIA PANHANDLE

CITY           SKY/WX    TMP DP  RH WIND       PRES   REMARKS
MARTINSBURG    CLEAR     48  41  76 CALM      30.04R
PETERSBURG*    CLEAR     42  38  88 CALM      30.10R

$$

VAZ036>039-050-221000-
CENTRAL FOOTHILLS

CITY           SKY/WX    TMP DP  RH WIND       PRES   REMARKS
CHARLOTTESVILL CLEAR     52  41  66 NW10G18   30.04R
CULPEPER*      CLEAR     47  42  84 CALM      30.04R
ORANGE*        CLEAR     52  43  71 W6        30.06R
GORDONSVILLE*  FAIR      47  44  88 NW7       30.05R
WARRENTON*     FAIR      49  45  86 W3        30.03R

$$

VAZ055>057-221000-
NORTH AND CENTRAL PIEDMONT

CITY           SKY/WX    TMP DP  RH WIND       PRES   REMARKS
FREDERICKSBRG* CLEAR     52  50  92 CALM      30.03R
STAFFORD*      CLEAR     46  44  93 NW3       30.07R

$$

NCZ024-NYZ072-PAZ021-071-VAZ022-071-221000-
OTHER REGIONAL OBSERVATIONS

CITY           SKY/WX    TMP DP  RH WIND       PRES   REMARKS
NEW YORK CITY  CLOUDY    56  43  61 CALM      29.88S
PHILADELPHIA   PTCLDY    53  45  74 NW8       29.93R
PITTSBURGH     PTCLDY    44  38  79 W5        30.05R
ROANOKE        CLOUDY    53  41  63 W8        30.12R
RICHMOND       CLEAR     53  47  79 NW7       30.04R
RALEIGH        MOCLDY    56  48  74 VRB5      30.07R

$$

ANZ530>537-221000-
MARINE OBSERVATIONS

STATION/POSITION TIME  TEMP    WIND        PRES
                       AIR SEA DIR/SP/G
                 (UTC) (F)     (DEG/KT/KT) (MB)
THOMAS PT LIGHT  0900   53 65  300/ 17/ 18 1015.7R
BALT KEY BRIDGE  0800   54     280/ 10/ 11 1014.1R
LEWISETTA        0800   56 68              1014.9R
PINEY POINT      0800          340/ 20/ 24   N/A

$$




USA.gov is the U.S. government's official web portal to all federal, state and local government web resources and services.